Flag for U.S.A. Weather past 2 weeks in Key West, Florida, U.S.A.

Now
74 °F

Rain. Overcast.


Feels Like: 70 °F
Forecast: 78 / 85 °F
Wind: 7 mph from East

Location: Key West International Airport

Current Time: Oct 22, 2014 at 7:27:23 PM

Latest Report: Oct 22, 2014 at 6:53 PM


Visibility: 8 mi

Pressure: 29.92 "Hg

Humidity: 100%

Dew point: 74 °F

Location of Key WestLocation

Historic Weather in Key West — Graph

°F

Key West temperature yesterday

Maximum temperature yesterday: 82 °F (at 9:53 AM)
Minimum temperature yesterday: 73 °F (at 12:57 PM)
Average temperature yesterday: 77 °F

Past Weeks' High & Low Weather Summary

 TemperatureHumidityPressure
High87 °F (Oct 8, 1:53 PM)100% (Oct 21, 10:53 AM)30.10 "Hg (Oct 21, 10:53 AM)
Low70 °F (Oct 19, 3:53 AM)49% (Oct 19, 2:53 PM)29.89 "Hg (Oct 21, 5:53 PM)
Average81 °F77%29.97 "Hg
* Reported Oct 7 5:53 PM — Oct 22 5:53 PM, Key West, Weather by CustomWeather, © 2014

Note: Actual official high and low records may vary slightly from our data, if they occured in-between our weather recording intervals... More about our weather records

Advertising

Key West weather history for previous 24 hours

 ConditionsComfort  
Time TempWeatherWind HumidityBarometerVisibility
5:53 PM
Oct 22
74 °FLight rain. More clouds than sun.9 mph97%29.90 "Hg10 mi
4:53 PM74 °FRain. Fog.7 mph100%29.89 "Hg6 mi
3:53 PM74 °FRain. Fog.5 mph100%29.90 "Hg3 mi
3:00 PM75 °FHeavy rain. Fog.13 mph94%29.94 "Hg2 mi
2:02 PM77 °FLight rain. More clouds than sun.8 mph100%29.93 "Hg10 mi
12:53 PM77 °FLight rain. Mostly cloudy.6 mph94%29.94 "Hg10 mi
11:53 AM79 °FLight rain. Overcast.6 mph90%29.96 "Hg10 mi
10:53 AM80 °FPartly sunny.6 mph81%29.96 "Hg10 mi
9:53 AM81 °FPartly sunny.8 mph91%29.95 "Hg10 mi
8:53 AM79 °FBroken clouds.6 mph97%29.95 "Hg10 mi
7:53 AM78 °FOvercast.3 mph96%29.93 "Hg10 mi
6:53 AM77 °FClear.3 mph96%29.92 "Hg10 mi
5:53 AM78 °FClear.5 mph93%29.90 "Hg10 mi
4:53 AM77 °FOvercast.5 mph96%29.90 "Hg10 mi
3:53 AM77 °FOvercast.3 mph96%29.90 "Hg10 mi
2:53 AM77 °FPassing clouds.3 mph94%29.91 "Hg10 mi
1:53 AM77 °FPassing clouds.3 mph94%29.91 "Hg10 mi
12:53 AM77 °FPassing clouds.5 mph90%29.92 "Hg10 mi
11:53 PM
Oct 21
78 °FClear.5 mph87%29.93 "Hg10 mi
10:53 PM79 °FPassing clouds.13 mph84%29.97 "Hg10 mi
9:53 PM76 °FOvercast.No wind100%29.97 "Hg10 mi
8:53 PM76 °FPartly cloudy.3 mph97%29.96 "Hg10 mi
7:53 PM77 °FLight rain. Overcast.5 mph94%29.94 "Hg10 mi
Weather by CustomWeather, © 2014

See weather overviewHow to use our weather pages